Location: Sternwarte Stuttgart
(48.7670°N, 9.1830°E)
Time: 11:35:26
(UTC+02:00)

Daily predictions for brighter satellites

Satellite Brightness Start Highest point End
(mag) Time Altitude Azimuth Time Altitude Azimuth Time Altitude Azimuth
Cosmos 2341 Rocket 4.1 20:55:15 10° S 21:01:37 90° NW 21:07:57 10° N
Cosmos 2366 rocket 4.3 20:57:31 10° SSE 21:03:30 50° E 21:09:35 10° NNE
Cosmos 407 Rocket 3.5 20:58:25 10° NNW 21:03:33 71° ENE 21:08:40 10° SSE
SL-8 Rocket 4.0 21:03:30 10° S 21:09:45 72° E 21:15:59 10° NNE
YAOGAN 6 3.0 21:09:32 10° S 21:13:09 67° W 21:16:51 10° NNW
BREEZE-M DEB (TANK) 2.9 21:10:14 10° WNW 21:14:16 44° SSW 21:16:20 10° SE
Cosmos 1980 3.9 21:08:44 10° SSW 21:14:25 81° WNW 21:20:09 10° NNE
SL-8 R/B 3.7 21:13:32 10° WSW 21:18:18 71° SSE 21:23:06 10° E
Cosmos 2369 Rocket 3.5 21:13:53 10° NNW 21:18:44 27° NE 21:23:32 10° ESE
Cosmos 1869 Rocket 3.9 21:14:53 10° N 21:19:06 46° ENE 21:23:16 10° SSE
ERS-2 3.5 21:16:35 10° S 21:20:05 41° W 21:23:36 10° NNW
Resurs 1-3 3.9 21:16:34 10° S 21:20:57 72° WSW 21:25:21 10° NNW
Cosmos 1862 3.7 21:17:36 10° N 21:21:31 46° ENE 21:25:23 10° SSE
Cosmos 2297 3.8 21:16:05 10° NNW 21:21:48 86° WSW 21:27:31 10° SSE
Cosmos 1371 Rocket 4.1 21:21:07 10° SSW 21:26:27 85° ESE 21:31:52 10° NNE
BREEZE-M DEB (TANK) 1.8 21:25:19 10° W 21:27:53 76° N 21:30:09 10° E
Cosmos 676 Rocket 4.0 21:24:21 10° NNW 21:29:37 75° ENE 21:34:49 10° SSE
ATLAS 5 CENTAUR R/B 3.1 21:24:51 10° NW 21:30:12 41° NE 21:35:56 11° ESE
Cosmos 2344 4.1 21:24:03 10° S 21:30:50 36° ESE 21:38:12 10° NE
Cosmos 2219 Rocket 3.9 21:26:13 10° WSW 21:31:28 38° NW 21:36:43 10° NNE
USA 81 4.1 21:28:34 10° N 21:33:50 64° E 21:39:02 10° SSE
Cosmos 2333 Rocket 3.8 21:31:11 10° WSW 21:36:29 40° NW 21:41:49 10° NNE
RESURS DK-1 3.9 21:33:21 10° N 21:36:47 24° NE 21:39:44 12° E
Cosmos 864 Rocket 4.4 21:32:43 10° S 21:38:50 84° E 21:45:03 10° N
CZ-4B DEB 4.4 21:35:42 10° SSE 21:39:12 79° ENE 21:42:43 10° N
Cosmos 2237 Rocket 3.0 21:34:58 10° SW 21:40:30 58° WNW 21:46:06 10° NNE
H-2A R/B 2.4 21:38:52 13° SE 21:43:00 46° ENE 21:47:42 10° N
Cosmos 1633 4.4 21:40:59 10° NNE 21:43:21 16° ENE 21:44:42 14° E
Cosmos 1140 Rocket 3.4 21:39:27 10° NNW 21:44:40 84° ENE 21:49:19 13° SSE
Cosmos 2278 Rocket 4.3 21:42:46 10° NW 21:47:14 24° WSW 21:51:41 10° SSW
Cosmos 2056 Rocket 3.7 21:41:56 10° SSW 21:47:21 82° WNW 21:52:46 10° NNE
Cosmos 1452 Rocket 3.8 21:42:54 10° S 21:47:51 44° ESE 21:52:50 10° NE
Helios 1B rocket 4.2 21:47:25 10° NE 21:49:46 15° E 21:50:15 14° E
SL-08 RB Rocket 4.0 21:46:53 16° SE 21:50:17 50° ENE 21:54:37 10° N
NOSS 3-4 (A) 4.5 21:43:50 10° NW 21:50:35 52° WSW 21:57:50 10° SSE
NOSS 3-4 (C) 4.4 21:43:56 10° NW 21:50:41 53° WSW 21:57:57 10° SSE
Meteor 1-4 Rocket 4.1 21:49:23 10° NNE 21:51:59 19° ENE 21:53:10 17° E
Cosmos 1441 Rocket 3.0 21:49:21 10° S 21:53:04 77° E 21:56:52 10° NNE
CZ-4C R/B 2.6 21:48:23 10° S 21:53:09 37° ESE 21:58:33 10° NE
GENESIS II 4.4 21:49:16 10° NW 21:53:13 62° NE 21:55:43 21° ESE
Terra 3.5 21:52:05 13° E 21:54:39 19° ENE 21:57:59 10° NNE
Cosmos 1850 Rocket 4.2 21:56:03 10° NNW 22:01:11 57° ENE 22:04:34 21° SE
Meteor 2-10 Rocket 4.1 21:58:44 10° SSW 22:04:31 69° WNW 22:10:21 10° N
MetOp-B 4.1 22:01:45 15° SSE 22:06:11 81° ENE 22:11:34 10° NNW
Cosmos 1954 Rocket 4.4 22:05:03 10° NNW 22:10:11 61° WSW 22:14:30 14° S
Cosmos 1000 Rocket 4.5 22:04:14 10° N 22:10:28 77° E 22:15:34 16° SSE
Cosmos 1741 Rocket 4.1 22:06:38 10° NNW 22:11:58 68° ENE 22:15:14 24° SE
Cosmos 1943 Rocket 2.8 22:08:11 10° NNW 22:13:29 44° NE 22:16:41 22° ESE
ARGOS 3.2 22:09:16 14° S 22:13:54 80° WSW 22:19:18 10° NNW
Cosmos 2098 Rocket 4.2 22:10:45 10° SW 22:14:22 34° WNW 22:17:25 10° N
Cosmos 2242 Rocket 4.1 22:16:21 27° SE 22:18:07 40° E 22:22:15 10° NNE
Cosmos 921 Rocket 3.6 22:16:55 28° SE 22:18:15 34° ESE 22:22:09 10° NE
Cosmos 1933 3.3 22:16:20 14° S 22:19:45 84° E 22:23:52 10° N
USA 245 2.0 22:20:16 60° ENE 22:20:16 60° ENE 22:22:23 10° N
Meteor 1-26 Rocket 4.4 22:16:48 20° SSE 22:20:25 50° E 22:25:49 10° NNE
Meteor 1-20 Rocket 4.5 22:17:12 10° N 22:22:33 51° ENE 22:25:21 27° SE
Cosmos 1821 Rocket 4.0 22:16:37 11° S 22:22:39 70° E 22:28:53 10° NNE
Cosmos 1782 4.2 22:25:30 22° E 22:25:30 22° E 22:28:35 10° NE
Cosmos 1461 3.9 22:23:19 10° NNW 22:27:58 45° NE 22:30:15 26° E
Cosmos 405 Rocket 3.8 22:25:08 10° SSW 22:28:54 46° WNW 22:32:47 10° N
Cosmos 1862 Rocket 3.8 22:28:56 33° SE 22:30:28 47° E 22:34:41 10° NNE
Helios 1A 2.9 22:29:41 32° SSE 22:31:36 82° ENE 22:35:48 10° NNW
Lacrosse 5 1.8 22:27:11 10° WNW 22:32:16 77° SW 22:34:36 32° SE
ATLAS CENTAUR R/B 4.4 22:30:25 10° WNW 22:32:38 15° NNW 22:34:57 10° N
ERS-1 Rocket 3.1 22:29:45 22° S 22:33:02 75° WSW 22:38:05 10° NNW
USA 234 4.1 22:27:41 10° E 22:33:54 47° N 22:40:06 10° WNW
SL-16 R/B 3.0 22:28:54 10° SW 22:34:25 53° NW 22:39:59 10° NNE
BREEZE M DEB (TANK) 4.0 22:19:07 10° W 22:35:55 87° N 22:39:57 14° E
Resurs 01 Rocket 4.3 22:33:53 10° SW 22:36:23 15° W 22:38:55 10° NW
SPOT 5 2.6 22:35:33 34° SSE 22:37:30 78° ENE 22:41:53 10° NNW
Cosmos 2123 Rocket 4.0 22:31:58 10° N 22:38:17 74° E 22:41:52 27° SSE
Spot 1 4.4 22:36:42 34° SE 22:38:37 59° ENE 22:43:07 10° N
Cosmos 1437 Rocket 3.1 22:40:04 10° NNW 22:43:55 62° W 22:45:33 32° SSW
IGS 5A 3.8 22:44:42 40° ESE 22:45:41 50° ENE 22:49:45 10° N
Cosmos 1420 Rocket 4.2 22:40:37 10° SSW 22:45:56 77° WNW 22:51:18 10° NNE
Cosmos 1943 3.2 22:58:06 32° S 23:00:36 59° ESE 23:06:12 10° NE
SL-8 R/B 3.6 22:56:01 10° W 23:00:50 86° S 23:02:39 38° E
CZ-2C R/B 3.8 22:57:15 10° NE 23:01:43 26° E 23:01:51 26° E
Cosmos 1603 3.7 22:56:19 10° SSW 23:01:57 85° WNW 23:07:36 10° NNE
Cosmos 2369 Rocket 2.4 22:57:36 10° NNW 23:03:15 66° WSW 23:05:34 36° S
Meteor 1-29 3.3 22:59:52 10° NNE 23:02:45 51° ENE 23:02:45 51° ENE
Cosmos 1733 Rocket 3.7 22:59:18 10° NNW 23:03:33 50° W 23:05:19 30° SSW
Gblst 52 Del rocket 4.0 22:58:07 10° SW 23:03:36 70° SSE 23:09:09 10° ENE
CARTOSAT-1 3.4 23:07:11 57° SSE 23:08:03 84° ENE 23:12:23 10° NNW
Cosmos 1605 Rocket 4.0 23:10:10 32° S 23:13:24 82° E 23:19:51 10° N
GEOS 3 Rocket 3.8 23:08:39 10° NE 23:13:53 51° SE 23:14:46 46° SSE
Landsat 7 4.0 23:12:30 42° SSW 23:14:00 66° WSW 23:18:46 10° NNW
SPOT 1/Viking Rocket 4.0 23:12:34 32° SSW 23:14:49 56° W 23:19:58 10° NNW
RESURS DK-1 2.9 23:11:03 10° NW 23:15:04 47° WSW 23:15:39 43° SW
ATLAS 5 CENTAUR R/B 2.7 23:09:25 10° NW 23:15:11 57° SW 23:17:29 38° S
Cosmos 2263 4.2 23:09:42 10° NNW 23:15:18 72° WSW 23:17:06 43° S
Cosmos 1110 Rocket 4.0 23:16:13 48° SSE 23:17:32 65° ESE 23:22:49 10° NNE
Cosmos 1633 3.5 23:15:07 10° NNW 23:18:27 38° W 23:18:56 36° WSW
Okean 1-7 3.6 23:19:09 40° ENE 23:19:09 40° ENE 23:22:48 10° NNE
CZ-2C R/B 2.9 23:20:55 55° SE 23:21:46 67° ENE 23:26:40 10° N
SL-6 R/B(2) 4.1 23:24:24 31° ENE 23:24:24 31° ENE 23:28:38 10° NE
H-2A R/B 3.7 23:19:30 15° SW 23:22:38 26° W 23:26:46 10° NW
DMSP B5D2-2 4.4 23:17:43 10° N 23:22:57 65° WNW 23:26:06 24° SW
Cosmos 1606 2.9 23:24:04 62° WSW 23:24:29 69° W 23:28:24 10° N
Helios 1B rocket 2.8 23:21:22 10° N 23:25:28 62° WNW 23:26:36 43° SW
Cosmos 1447 Rocket 4.4 23:20:55 10° N 23:27:07 89° WSW 23:29:14 44° S
Meteor 1-4 Rocket 3.9 23:24:05 10° NNW 23:27:09 29° W 23:27:26 29° WSW
Cosmos 389 Rocket 2.8 23:25:17 10° NNW 23:28:17 62° NW 23:28:17 62° NW
Cosmos 1459 Rocket 4.3 23:28:14 41° ESE 23:29:18 45° E 23:35:03 10° NNE
Meteor 1-11 Rocket 3.8 23:24:17 10° N 23:29:51 61° ENE 23:30:59 50° ESE
Cosmos 1782 Rocket 3.4 23:26:20 10° N 23:30:51 81° E 23:31:09 75° SE
Terra 2.0 23:30:58 52° SSW 23:31:56 66° WSW 23:36:42 10° NNW
Sich 1 Rocket 3.6 23:28:50 10° NNW 23:33:27 79° W 23:33:59 67° SSW
YAOGAN 11 4.1 23:34:49 61° SW 23:35:13 65° WSW 23:39:33 10° NNW
Meteor 1-5 Rocket 4.4 23:32:18 10° N 23:37:34 52° ENE 23:38:27 47° ESE
Meteor 1-27 Rocket 4.0 23:37:53 49° ESE 23:38:39 52° E 23:44:14 10° NNE
USA 267 3.4 23:34:26 10° ENE 23:40:44 47° SE 23:41:10 46° SSE
CZ-4C R/B 3.1 23:36:11 10° WSW 23:41:28 51° NW 23:47:38 10° NE
Okean 2 Rocket 3.2 23:37:05 10° N 23:41:23 63° ENE 23:41:23 63° ENE
Cosmos 2344 4.2 23:37:09 10° WSW 23:44:43 62° NW 23:53:45 10° NE
Spot 4 3.6 23:54:16 80° SE 23:54:30 86° ENE 23:59:20 10° NNW
